Indianapolis Mount Comfort, IN

11:48 PM EST on November 19, 2017 (GMT -0500)
Mount Comfort

Weather History for KMQJ - March, 2014

Change the Weather History Date:

Monday, March 24, 2014

  Actual Average (KEYE) Record (KEYE)
Temperature  
Mean Temperature 28 °F -  
Max Temperature 39 °F 51 °F 75 °F (2007)
Min Temperature 17 °F 34 °F 18 °F (2014)
Degree Days  
Heating Degree Days 37    
Moisture  
Dew Point 15 °F    
Average Humidity 63    
Maximum Humidity 100    
Minimum Humidity 33    
Precipitation  
Precipitation 0.00 in - - ()
Sea Level Pressure  
Sea Level Pressure 30.26 in    
Wind  
Wind Speed 3 mph (NW)    
Max Wind Speed 12 mph    
Max Gust Speed 16 mph    
Visibility 10 miles    
Events      
Averages and records for this station are not official NWS values.
T = Trace of Precipitation, MM = Missing Value Source: NWS Daily Summary

Daily Weather History Graph

Daily Weather History Graph

Search for Another Location

Airport or City:

Trip Planner

Search our weather history database for the weather conditions in past years. The results will help you decide how hot, cold, wet, or windy it might be!

Date:

Astronomy

Mar. 24, 2014 Rise Set
Actual Time 7:40 AM EDT 7:59 PM EDT
Civil Twilight 7:13 AM EDT 8:26 PM EDT
Nautical Twilight 6:41 AM EDT 8:58 PM EDT
Astronomical Twilight 6:09 AM EDT 9:30 PM EDT
Moon 3:09 AM EDT (3/24) 1:25 PM EDT (3/24)
Length of Visible Light 13h 13m
Length of Day
12h 19m
Last Quarter, 43% of the Moon is Illuminated
Mar 24
Last Quarter
Mar 30
New
Apr 7
First Quarter
Apr 15
Full
Apr 22
Last Quarter

Hourly Weather History & Observations

Time (EDT) Temp. Windchill Dew Point Humidity Pressure Visibility Wind Dir Wind Speed Gust Speed Precip Events Conditions
12:15 AM 23.0 °F 15.8 °F 15.8 °F 74% 30.34 in 10.0 mi NNE 5.8 mph - N/A   Clear
12:34 AM 23.0 °F 17.0 °F 15.8 °F 74% 30.34 in 10.0 mi NNE 4.6 mph - N/A   Clear
12:55 AM 21.2 °F 14.9 °F 15.8 °F 80% 30.34 in 10.0 mi NE 4.6 mph - N/A   Clear
1:15 AM 23.0 °F - 17.6 °F 80% 30.34 in 10.0 mi Calm Calm - N/A   Clear
1:34 AM 21.2 °F - 17.6 °F 86% 30.34 in 10.0 mi Calm Calm - N/A   Clear
1:55 AM 21.2 °F - 17.6 °F 86% 30.34 in 10.0 mi Calm Calm - N/A   Clear
2:14 AM 21.2 °F - 17.6 °F 86% 30.34 in 10.0 mi Calm Calm - N/A   Clear
2:35 AM 19.4 °F 14.3 °F 15.8 °F 86% 30.34 in 10.0 mi NNE 3.5 mph - N/A   Clear
2:55 AM 21.2 °F - 15.8 °F 80% 30.35 in 10.0 mi Calm Calm - N/A   Clear
3:14 AM 19.4 °F - 15.8 °F 86% 30.34 in 10.0 mi Calm Calm - N/A   Clear
3:35 AM 19.4 °F - 15.8 °F 86% 30.34 in 10.0 mi Calm Calm - N/A   Clear
3:54 AM 19.4 °F 14.3 °F 15.8 °F 86% 30.34 in 10.0 mi North 3.5 mph - N/A   Clear
4:14 AM 17.6 °F 12.3 °F 14.0 °F 86% 30.34 in 10.0 mi NNE 3.5 mph - N/A   Clear
4:35 AM 17.6 °F 12.3 °F 15.8 °F 93% 30.34 in 10.0 mi NNE 3.5 mph - N/A   Clear
4:54 AM 17.6 °F - 15.8 °F 93% 30.34 in 10.0 mi Calm Calm - N/A   Clear
5:15 AM 17.6 °F - 17.6 °F 100% 30.34 in 10.0 mi Calm Calm - N/A   Clear
5:35 AM 17.6 °F - 17.6 °F 100% 30.34 in 10.0 mi Calm Calm - N/A   Clear
5:54 AM 17.6 °F - 17.6 °F 100% 30.34 in 10.0 mi Calm Calm - N/A   Clear
6:15 AM 17.6 °F - 14.0 °F 86% 30.34 in 10.0 mi Calm Calm - N/A   Clear
6:34 AM 17.6 °F - 15.8 °F 93% 30.34 in 10.0 mi Calm Calm - N/A   Clear
6:54 AM 17.6 °F - 15.8 °F 93% 30.33 in 10.0 mi Calm Calm - N/A   Clear
7:15 AM 19.4 °F - 15.8 °F 86% 30.33 in 10.0 mi Calm Calm - N/A   Mostly Cloudy
7:34 AM 19.4 °F - 15.8 °F 86% 30.33 in 10.0 mi Calm Calm - N/A   Overcast
7:55 AM 19.4 °F - 15.8 °F 86% 30.33 in 10.0 mi Calm Calm - N/A   Mostly Cloudy
8:15 AM 19.4 °F - 15.8 °F 86% 30.34 in 10.0 mi Calm Calm - N/A   Mostly Cloudy
8:34 AM 19.4 °F - 15.8 °F 86% 30.34 in 10.0 mi Calm Calm - N/A   Mostly Cloudy
8:55 AM 21.2 °F - 17.6 °F 86% 30.34 in 10.0 mi Calm Calm - N/A   Scattered Clouds
9:15 AM 23.0 °F 17.0 °F 14.0 °F 68% 30.34 in 10.0 mi East 4.6 mph - N/A   Clear
9:34 AM 24.8 °F 19.1 °F 14.0 °F 64% 30.34 in 10.0 mi East 4.6 mph - N/A   Clear
9:55 AM 26.6 °F 20.0 °F 14.0 °F 59% 30.34 in 10.0 mi East 5.8 mph - N/A   Clear
10:15 AM 26.6 °F 21.2 °F 14.0 °F 59% 30.34 in 10.0 mi East 4.6 mph - N/A   Clear
10:34 AM 28.4 °F 24.6 °F 14.0 °F 55% 30.34 in 10.0 mi SE 3.5 mph - N/A   Clear
10:55 AM 28.4 °F 22.2 °F 14.0 °F 55% 30.33 in 10.0 mi South 5.8 mph - N/A   Clear
11:15 AM 30.2 °F 25.4 °F 12.2 °F 47% 30.33 in 10.0 mi SW 4.6 mph - N/A   Clear
11:34 AM 32.0 °F 25.6 °F 14.0 °F 48% 30.32 in 10.0 mi SSW 6.9 mph - N/A   Clear
11:55 AM 32.0 °F 27.5 °F 12.2 °F 44% 30.31 in 10.0 mi South 4.6 mph - N/A   Clear
12:14 PM 32.0 °F - 12.2 °F 44% 30.30 in 10.0 mi Calm Calm - N/A   Clear
12:35 PM 32.0 °F - 12.2 °F 44% 30.29 in 10.0 mi Calm Calm - N/A   Clear
12:55 PM 33.8 °F 29.6 °F 12.2 °F 41% 30.29 in 10.0 mi West 4.6 mph - N/A   Clear
1:14 PM 33.8 °F 28.6 °F 10.4 °F 38% 30.27 in 10.0 mi WSW 5.8 mph - N/A   Clear
1:35 PM 33.8 °F 29.6 °F 10.4 °F 38% 30.27 in 10.0 mi SSW 4.6 mph - N/A   Clear
1:55 PM 35.6 °F - 10.4 °F 35% 30.26 in 10.0 mi Calm Calm - N/A   Clear
2:14 PM 35.6 °F 31.7 °F 10.4 °F 35% 30.24 in 10.0 mi SW 4.6 mph - N/A   Clear
2:35 PM 37.4 °F 34.9 °F 10.4 °F 33% 30.23 in 10.0 mi West 3.5 mph - N/A   Clear
2:54 PM 37.4 °F 31.4 °F 10.4 °F 33% 30.22 in 10.0 mi West 8.1 mph - N/A   Clear
3:15 PM 39.2 °F 32.5 °F 12.2 °F 33% 30.21 in 10.0 mi West 10.4 mph - N/A   Clear
3:34 PM 37.4 °F - 10.4 °F 33% 30.20 in 10.0 mi Calm Calm - N/A   Clear
3:55 PM 39.2 °F 34.2 °F 12.2 °F 33% 30.19 in 10.0 mi WSW 6.9 mph - N/A   Clear
4:15 PM 39.2 °F 35.0 °F 12.2 °F 33% 30.19 in 10.0 mi West 5.8 mph - N/A   Clear
4:34 PM 39.2 °F 34.2 °F 12.2 °F 33% 30.18 in 10.0 mi NW 6.9 mph - N/A   Clear
4:55 PM 39.2 °F - 12.2 °F 33% 30.17 in 10.0 mi North - - N/A   Clear
5:15 PM 39.2 °F 33.6 °F 14.0 °F 36% 30.17 in 10.0 mi West 8.1 mph - N/A   Scattered Clouds
5:34 PM 39.2 °F 33.6 °F 14.0 °F 36% 30.17 in 10.0 mi WNW 8.1 mph 16.1 mph N/A   Clear
5:55 PM 37.4 °F 29.8 °F 14.0 °F 38% 30.16 in 10.0 mi WNW 11.5 mph - N/A   Clear
6:15 PM 37.4 °F 32.1 °F 14.0 °F 38% 30.16 in 10.0 mi NNW 6.9 mph - N/A   Clear
6:34 PM 37.4 °F 30.3 °F 15.8 °F 41% 30.16 in 10.0 mi WNW 10.4 mph - N/A   Clear
6:55 PM 35.6 °F 28.0 °F 15.8 °F 44% 30.15 in 10.0 mi WNW 10.4 mph - N/A   Clear
7:14 PM 35.6 °F 29.9 °F 15.8 °F 44% 30.15 in 10.0 mi NW 6.9 mph - N/A   Clear
7:35 PM 33.8 °F 26.4 °F 15.8 °F 48% 30.14 in 10.0 mi NNW 9.2 mph - N/A   Clear
7:55 PM 33.8 °F 28.6 °F 15.8 °F 48% 30.14 in 10.0 mi NNW 5.8 mph - N/A   Clear
8:14 PM 32.0 °F 26.4 °F 15.8 °F 51% 30.14 in 10.0 mi NNW 5.8 mph - N/A   Clear
8:35 PM 32.0 °F 24.8 °F 17.6 °F 55% 30.14 in 10.0 mi NNW 8.1 mph - N/A   Clear
8:54 PM 30.2 °F 24.3 °F 17.6 °F 60% 30.14 in 10.0 mi North 5.8 mph - N/A   Clear
9:15 PM 30.2 °F 24.3 °F 17.6 °F 60% 30.14 in 10.0 mi NNW 5.8 mph - N/A   Clear
9:35 PM 30.2 °F 25.4 °F 17.6 °F 60% 30.14 in 10.0 mi NNW 4.6 mph - N/A   Clear
9:54 PM 28.4 °F 23.3 °F 17.6 °F 64% 30.14 in 10.0 mi NNW 4.6 mph - N/A   Clear
10:15 PM 30.2 °F 26.7 °F 17.6 °F 60% 30.13 in 10.0 mi NNW 3.5 mph - N/A   Clear
10:35 PM 30.2 °F 25.4 °F 15.8 °F 55% 30.13 in 10.0 mi NNW 4.6 mph - N/A   Clear
10:54 PM 28.4 °F 24.6 °F 15.8 °F 59% 30.12 in 10.0 mi North 3.5 mph - N/A   Clear
11:15 PM 26.6 °F - 17.6 °F 69% 30.12 in 10.0 mi Calm Calm - N/A   Clear
11:35 PM 26.6 °F - 19.4 °F 74% 30.11 in 10.0 mi Calm Calm - N/A   Clear
11:55 PM 26.6 °F - 19.4 °F 74% 30.11 in 10.0 mi Calm Calm - N/A   Clear